Regional Weather Roundup
Issued by NWS Albany, NY

Home | Current Version | Previous Version | Text Only | Print | Product List | Glossary On
Versions: 1 2 3 4 5 6 7 8 9 10 11 12 13 14 15 16 17 18 19 20 21 22 23 24 25 26 27 28 29 30 31 32 33 34 35 36 37 38 39 40 41 42 43 44 45 46 47 48 49 50
000
ASUS41 KALY 251010
RWRALY

NEW YORK STATE HOURLY WEATHER ROUNDUP
NATIONAL WEATHER SERVICE ALBANY NY
600 AM EDT MON JUL 25 2016

NOTE: "FAIR" INDICATES FEW OR NO CLOUDS BELOW 12,000 FEET WITH NO
SIGNIFICANT WEATHER AND/OR NO OBSTRUCTIONS TO VISIBILITY.

NYZ032-033-038>043-046>054-057>066-NYZ062>081-082-084-251100-
EAST


CITY           SKY/WX    TMP DP  RH WIND       PRES   REMARKS
ALBANY         CLOUDY    67  63  87 CALM      29.93R
GLENS FALLS    CLOUDY    64  62  93 CALM      29.93S
POUGHKEEPSIE   CLOUDY    72  66  81 CALM      29.93R
NEWBURGH       MOCLDY    73  68  83 CALM      29.96R
MONTGOMERY     CLOUDY    69  65  86 CALM      29.94S
WHITE PLAINS   CLOUDY    74  69  85 CALM      29.95S
ISLIP          MOCLDY    76  72  87 SW8       29.95S
NEW YORK CITY  CLOUDY    80  67  64 SW9G18    29.93R
CENTRAL PARK   LGT RAIN  80  64  58 VRB5      29.97R
$$

NYZ005>009-017-018-044>046-055-056-251100-
CENTRAL


CITY           SKY/WX    TMP DP  RH WIND       PRES   REMARKS
FULTON         CLOUDY    71  64  78 SE3       29.89F
SYRACUSE       PTCLDY    65  63  93 E5        29.89F
ROME           PTCLDY    64  62  93 E5        29.92F
ELMIRA         PTCLDY    64  58  80 CALM      29.95S
BINGHAMTON     CLEAR     66  61  84 S3        29.97S
MONTICELLO     CLOUDY    66  63  88 CALM      30.00S
$$

NYZ026>034-041>043-087-251100-
NORTH


CITY           SKY/WX    TMP DP  RH WIND       PRES   REMARKS
WATERTOWN      CLOUDY    66  56  70 SW5       29.86F
FORT DRUM      NOT AVBL
MASSENA        MOCLDY    60  57  89 CALM      29.88F
SARANAC LAKE   CLEAR     52  50  93 CALM      29.95F
PLATTSBURGH    CLEAR     58  57  97 CALM      29.91R
$$

NYZ001>004-010>016-019>021-085-251100-
WEST


CITY           SKY/WX    TMP DP  RH WIND       PRES   REMARKS
NIAGARA FALLS  CLOUDY    77  67  71 S12       29.86F
BUFFALO        CLOUDY    77  66  68 SW9       29.87F
DUNKIRK        TSTM      74  70  87 S15       29.89F
JAMESTOWN      CLOUDY    70  66  88 S7        29.98F THUNDER
WELLSVILLE     PTCLDY    71  64  78 SW10      30.02F
ROCHESTER      CLOUDY    73  65  75 SW9       29.88F
PENN YAN       PTCLDY    71  61  70 SW7       29.93F
$$

             KEY
       WCI = WIND CHILL INDEX
       VSB = VISIBILITY
       HX  = HEAT INDEX
$$



USA.gov is the U.S. government's official web portal to all federal, state and local government web resources and services.